Regional Weather Roundup
Issued by NWS

Home | Current Version | Previous Version | Graphics & Text | Print | Product List | Glossary On
Versions: 1 2 3 4 5 6 7 8 9 10 11 12 13 14 15 16 17 18 19 20 21 22 23 24 25 26 27 28 29 30 31 32 33 34 35 36 37 38 39 40 41 42 43 44 45 46 47 48 49 50
000
ASUS43 KMPX 290301
RWRMN
WEATHER ROUNDUP FOR MINNESOTA
NATIONAL WEATHER SERVICE TWIN CITIES/CHANHASSEN MN
1000 PM CDT SAT MAY 28 2016


NOTE: "FAIR" INDICATES FEW OR NO CLOUDS BELOW 12,000 FEET WITH NO
SIGNIFICANT WEATHER AND/OR OBSTRUCTIONS TO VISIBILITY. N/A MEANS
CURRENT SKY AND/OR WEATHER CONDITIONS ARE NOT AVAILABLE.

MNZ060>063-068>070-290400-
   Twin Cities Metro

CITY           SKY/WX    TMP DP  RH WIND       PRES   REMARKS
TWIN CITIES    CLOUDY    64  60  87 NW3       29.80R
ST PAUL        MOCLDY    62  60  93 CALM      29.80R
CRYSTAL        CLOUDY    64  59  83 CALM      29.79S
BLAINE         PTCLDY    64  63  94 CALM      29.80R
EDEN PRAIRIE   CLOUDY    64  60  87 CALM      29.80R
SOUTH ST PAUL  MOCLDY    64  62  94 CALM      29.80R
LAKE ELMO      CLOUDY    61  61 100 CALM      29.81R FOG
$$
MNZ001>005-007-008-013>017-022>024-027-028-290400-
   Northwest Minnesota

CITY           SKY/WX    TMP DP  RH WIND       PRES   REMARKS
BEMIDJI        DRIZZLE   57  57  98 CALM      29.82R
HALLOCK        CLOUDY    61  59  94 E3        29.87R
ROSEAU         RAIN      57  52  82 N7        29.86S
WARROAD        CLOUDY    57  54  88 NE8       29.86S
THIEF RVR FALL CLOUDY    59  55  88 N8        29.87R
CROOKSTON      DRIZZLE   61  59  94 NE6       29.86R
FOSSTON        DRIZZLE   57  55  94 N6        29.84R
DETROIT LAKES  RAIN      59  57  94 NW6       29.85R
MOORHEAD       DRIZZLE   61  59  94 NW8       29.85R
PARK RAPIDS    CLOUDY    60  57  89 CALM      29.83R FOG
MAHNOMEN       LGT RAIN  58  57  97 N5        29.83R
$$
MNZ006-009>011-018-025>026-290400-
   North Central Minnesota

CITY           SKY/WX    TMP DP  RH WIND       PRES   REMARKS
BAUDETTE       CLOUDY    56  54  93 N7        29.84R
FLAG ISLAND    CLOUDY    55  54  94 NE12      29.85S
INTL FALLS     LGT RAIN  57  56  96 N6        29.82R VSB 1
WASKISH        DRIZZLE   57  55  94 N7        29.82S
BIG FORK       CLOUDY    61  57  88 CALM      29.81R
LONGVILLE      CLOUDY    59  57  94 CALM      29.82R
GRAND RAPIDS   LGT RAIN  60  59  96 CALM      29.82R
CRANE LAKE     CLOUDY    59  57  94 CALM      29.82S
ORR            CLOUDY    59  57  94 CALM      29.78S
COOK           LGT RAIN  59  57  94 CALM      29.81S
WALKER         CLOUDY    58  57  98 CALM      29.82R
$$
MNZ012-019>021-037-290400-
   Northeast Minnesota

CITY           SKY/WX    TMP DP  RH WIND       PRES   REMARKS
DULUTH         CLOUDY    55  54  96 N5        29.80S FOG
ELY            CLOUDY    59  57  94 CALM      29.80S FOG
HIBBING        LGT RAIN  57  57 100 W3        29.80R
EVELETH        PTCLDY    57  57 100 CALM      29.82R
DULUTH HARBOR  CLOUDY    52  48  87 CALM      29.81S
TWO HARBORS    CLOUDY    57  52  82 CALM      29.78F HAZE
SILVER BAY     FOG       55  55 100 N3        29.79F VSB 1/2
GRAND MARAIS     N/A     47  46  97 CALM      29.81F
G MARAIS ARPRT FOG       61  57  88 CALM      29.83S VSB 1/4
$$
MNZ029>031-032-039>041-046>048-054>057-064-290400-
   West Central Minnesota

CITY           SKY/WX    TMP DP  RH WIND       PRES   REMARKS
FERGUS FALLS   DRIZZLE   61  61 100 NW6       29.82R
WHEATON        CLOUDY    64  59  82 NW7       29.87R
MORRIS         LGT RAIN  61  59  94 W5        29.84R
ALEXANDRIA     CLOUDY    60  57  89 CALM      29.85R
ELBOW LAKE     CLOUDY    60  58  94 W7        29.84R
WADENA         CLOUDY    57  57 100 CALM      29.83R
GLENWOOD       CLOUDY    61  57  88 W5        29.85R
APPLETON       CLOUDY    63  57  82 CALM      29.85R
ORTONVILLE     CLOUDY    63  57  82 NW9       29.85R
MADISON        MOCLDY    63  57  82 W3        29.86R
WILLMAR        MOCLDY    63  61  94 W6        29.85R
$$
MNZ033>034-036-042>043-049>051-058-059-290400-
   Central Minnesota

CITY           SKY/WX    TMP DP  RH WIND       PRES   REMARKS
ST CLOUD       CLOUDY    61  59  93 NW3       29.81S
SAUK CENTRE    CLOUDY    60  56  87 W3        29.84R
PAYNESVILLE    CLOUDY    62  60  93 W3        29.84R
AITKIN         CLOUDY    61  55  82 CALM      29.80R
PINE RIVER     CLOUDY    59  59 100 CALM      29.85S
BRAINERD       CLOUDY    60  58  92 CALM      29.82S
STAPLES        CLOUDY    59  57  94 W3        29.83R
LONG PRAIRIE   CLOUDY    59  55  88 CALM      29.84R
LITTLE FALLS   CLOUDY    59  57  94 CALM      29.83R
LITCHFIELD     CLOUDY    64  61  88 CALM      29.83R
BUFFALO        CLOUDY    63  58  86 CALM      29.82R
MAPLE LAKE     CLOUDY    63  60  92 CALM      29.82S
HUTCHINSON     CLOUDY    63  61  95 CALM      29.84R
$$
MNZ037-044-045-052-053-290400-
   East Central Minnesota

CITY           SKY/WX    TMP DP  RH WIND       PRES   REMARKS
PRINCETON        N/A     63  61  94 NW3       29.81S
MORA           CLOUDY    61  55  82 CALM      29.82S
CAMBRIDGE      CLOUDY    64  55  72 CALM      29.79R
RUSH CITY      LGT RAIN  61  59  94 CALM      29.81R
MOOSE LAKE     CLOUDY    55  54  94 CALM      29.80R
HINCKLEY       CLOUDY    61  61 100 CALM      29.81R
CLOQUET        CLOUDY    54  52  94 CALM      29.81R FOG
MCGREGOR       CLOUDY    61  59  94 CALM      29.81R
$$
MNZ071>073-080-081-089-090-097-098-290400-
   Southwest Minnesota

CITY           SKY/WX    TMP DP  RH WIND       PRES   REMARKS
MONTEVIDEO     CLOUDY    63  63 100 CALM      29.87R
GRANITE FALLS  CLOUDY    64  62  90 W7        29.87R
CANBY          CLOUDY    64  60  90 CALM      29.88R
MARSHALL       CLOUDY    61  59  93 W6        29.87R
REDWOOD FALLS  CLOUDY    63  58  83 NW7       29.84R
OLIVIA         CLOUDY    63  59  88 NW6       29.84R
PIPESTONE      CLOUDY    61  57  88 CALM      29.90R
WINDOM         CLOUDY    63  57  82 CALM      29.86R
WORTHINGTON    CLOUDY    61  59  93 NW6       29.88R
JACKSON        CLOUDY    61  59  94 NW5       29.86R
TRACY          PTCLDY    61  59  94 W3        29.87R
SLAYTON        CLOUDY    59  59  99 W7        29.89R
$$
MNZ065>067-074>077-082>085-091>093-290400-
   South Central Minnesota

CITY           SKY/WX    TMP DP  RH WIND       PRES   REMARKS
MANKATO        CLOUDY    63  59  88 N5        29.83R
NEW ULM        MOCLDY    61  61 100 NW13      29.83R
ST JAMES       CLOUDY    57  55  94 CALM      29.85R
FAIRMONT       CLOUDY    63  55  77 NW9       29.83R
GLENCOE        CLOUDY    64  62  94 W3        29.82R
FARIBAULT      CLOUDY    63  63 100 N6        29.81R
OWATONNA       HVY RAIN  64  63  94 SW7       29.82R
WASECA         CLOUDY    63  59  88 N6        29.83R
ALBERT LEA     DRIZZLE   63  63 100 CALM      29.82R
$$
MNZ078>079-086>088-094>096-290400-
   Southeast Minnesota

CITY           SKY/WX    TMP DP  RH WIND       PRES   REMARKS
ROCHESTER      CLOUDY    63  61  93 S7        29.82R
RED WING       CLOUDY    64  63  94 CALM      29.79R FOG
STANTON        LGT RAIN  64  60  87 CALM      29.80R
DODGE CENTER   LGT RAIN  63  61  94 SW5       29.82R
WINONA         MOCLDY    61  59  94 CALM      29.81R
AUSTIN         CLOUDY    63  61  94 CALM      29.81F
PRESTON        CLOUDY    61  59  92 CALM      29.83R
$$
ABBREVIATIONS USED IN REMARKS
   TC - TEMPERATURES IN CELSIUS
  WCI - WIND CHILL INDEX
   HX - HEAT INDEX
  VSB - VISIBILITY
$$




USA.gov is the U.S. government's official web portal to all federal, state and local government web resources and services.